SCP
1 1 1 1 1 1 1 1 1 1 1 0 0 0 0 0 0 0 0 0 0 0 0 0 0 0 0 0 0 0 0 0 0 0 0 0 0 0 0 0 0 0 0
1 1 1 1 1 1 1 1 1 1 1 0 0 0 0 0 0 0 0 0 0 0 0 0 0 0 0 0 0 0 0 0 0 0 0 0 0 0 0 0 0 0 0
2 1 1 1 1 1 1 1 1 1 1 1 0 0 0 0 0 0 0 0 0 0 0 0 0 0 0 0 0 0 0 0 0 0 0 0 0 0 0 0 0 0 0
2 1 1 1 1 1 1 1 1 1 1 1 0 0 0 0 0 0 0 0 0 0 0 0 0 0 0 0 0 0 0 0 0 0 0 0 0 0 0 0 0 0 0
2 1 1 1 1 1 1 1 1 1 1 1 1 0 0 0 0 0 0 0 0 0 0 0 0 0 0 0 0 0 0 0 0 0 0 0 0 0 0 0 0 0 0
2 1 1 1 1 1 1 1 1 1 1 1 1 0 0 0 0 0 0 0 0 0 0 0 0 0 0 0 0 0 0 0 0 0 0 0 0 0 0 0 0 0 0
2 2 1 1 1 1 1 1 1 1 1 1 1 1 0 0 0 0 0 0 0 0 0 0 0 0 0 0 0 0 0 0 0 0 0 0 0 0 0 0 0 0 0
2 2 1 1 1 1 1 1 1 1 1 1 1 1 1 1 1 1 1 1 1 0 0 0 0 0 0 0 0 0 0 0 0 0 0 0 0 0 0 0 0 0 0
2 2 2 1 1 1 1 1 1 1 1 1 1 1 1 1 1 1 1 1 1 0 0 0 0 0 0 0 0 0 0 0 0 0 0 0 0 0 0 0 0 0 0
2 2 1 1 1 1 1 1 1 1 1 1 1 1 0 0 0 0 0 1 1 1 0 0 0 0 0 0 0 0 0 0 0 0 0 0 0 0 0 0 0 0 0
2 2 1 1 1 1 1 1 0 0 0 0 0 0 0 0 0 0 0 0 1 0 0 0 0 0 0 0 0 0 0 0 0 0 0 0 0 0 0 0 0 0 0
1 1 1 1 1 1 1 1 1 0 0 0 0 0 0 0 0 0 0 0 0 0 0 0 0 0 0 0 0 0 0 0 0 0 0 0 0 0 0 0 0 0 0
1 1 1 1 1 1 1 1 1 1 0 0 1 1 0 0 0 0 0 0 0 0 0 0 0 0 0 0 0 0 0 0 0 0 0 0 0 0 0 0 0 0 0
1 1 1 1 1 1 1 1 1 1 1 0 1 1 1 1 0 0 0 0 0 0 0 0 0 0 0 0 0 0 0 0 0 0 0 0 0 0 0 0 1 1 1
0 0 1 1 1 1 1 1 1 1 1 1 0 1 1 1 0 0 0 0 0 0 0 0 0 0 0 0 0 0 0 0 0 0 0 0 0 0 0 1 1 1 1
0 0 1 1 1 1 1 1 1 1 1 1 0 1 1 1 1 0 0 0 0 0 0 0 0 0 0 0 0 0 0 0 0 0 0 0 0 0 0 1 1 1 1
0 0 0 1 1 1 1 1 1 0 1 0 0 0 1 1 1 0 0 0 0 0 0 0 0 0 0 0 0 0 0 0 0 0 0 0 0 0 0 1 1 1 1
0 0 0 0 1 1 1 1 1 0 0 0 0 0 1 1 1 1 0 0 0 0 0 0 0 0 0 0 0 0 0 0 0 0 0 0 0 0 0 0 1 1 1
0 0 0 0 0 1 1 1 1 0 0 0 0 0 0 1 1 1 0 0 0 0 0 0 0 0 0 0 0 0 0 0 0 0 0 0 0 0 0 0 0 1 1
1 0 0 0 0 0 0 1 1 0 0 0 0 0 0 0 1 1 1 0 0 0 0 0 0 0 0 0 0 0 0 0 0 0 0 0 0 0 0 0 0 0 0
1 1 0 0 0 0 0 0 0 0 0 0 0 0 0 0 0 1 1 0 0 0 0 0 0 0 0 0 0 0 0 0 0 0 0 0 0 0 0 0 0 0 0
0 1 0 0 0 0 0 0 0 0 0 0 0 0 0 0 0 0 1 0 0 0 0 0 0 0 0 0 0 0 0 0 0 0 0 0 0 0 0 0 0 0 0
0 0 0 0 0 0 0 0 0 0 0 0 0 0 0 0 0 0 0 0 0 0 0 0 0 0 0 0 0 0 0 0 0 0 0 0 0 0 0 0 0 0 0
0 0 0 0 0 0 0 0 0 0 0 0 0 0 0 0 0 0 0 0 0 0 0 0 0 0 0 0 0 0 0 0 0 0 0 0 0 0 0 0 0 0 0
0 0 0 0 0 0 0 0 0 0 0 0 0 0 0 0 0 0 0 0 0 0 0 0 0 0 0 0 0 0 0 0 0 0 0 0 0 0 0 0 0 0 0
0 0 0 0 0 0 0 0 0 0 0 0 0 0 0 0 0 0 0 0 0 0 0 0 0 0 0 0 0 0 0 0 0 0 0 0 0 0 0 0 0 0 0
Wind_Speed
3 4 4 6 7 8 10 10 11 11 11 12 12 12 12 12 12 12 12 12 12 12 12 13 13 13 13 13 12 12 12 11 11 10 10 10 11 11 11 10 9 7 10
4 5 4 6 7 8 9 10 11 11 11 11 12 12 12 12 11 11 11 11 11 12 12 12 12 12 12 12 12 11 10 9 9 8 7 7 9 10 10 10 9 6 8
6 6 5 7 8 9 9 10 10 11 11 11 11 11 12 12 12 12 11 11 10 11 11 12 12 12 12 12 12 11 10 8 8 8 6 3 5 9 9 9 9 9 8
6 5 5 8 8 9 9 10 10 11 11 11 11 11 11 12 12 12 11 11 11 11 11 11 11 11 11 11 11 10 10 9 9 8 4 3 4 8 8 9 9 9 9
6 6 6 8 9 9 9 9 10 10 10 11 11 11 11 12 12 12 11 11 11 11 11 11 10 11 10 10 10 9 10 9 9 6 4 5 4 8 8 8 8 8 8
6 6 6 8 8 9 9 9 9 9 10 10 10 10 11 11 11 12 11 11 11 11 11 11 10 10 10 10 9 9 10 9 7 4 4 5 5 8 9 9 8 8 7
6 6 6 7 8 9 9 9 9 10 10 10 10 10 10 11 11 11 11 11 10 10 10 10 10 10 10 10 10 9 9 9 5 4 4 4 6 9 9 9 9 8 8
5 5 5 6 7 8 9 9 9 9 10 10 10 10 10 10 10 10 10 10 10 9 9 9 9 9 9 9 9 10 9 8 6 5 4 4 7 9 9 8 8 8 7
5 5 4 4 5 7 8 8 8 8 9 9 9 9 9 9 9 9 9 9 9 9 9 9 9 8 8 8 8 9 9 8 5 4 5 4 7 8 8 8 8 8 8
5 4 3 3 3 3 4 7 7 8 8 8 8 8 7 7 7 8 8 9 9 9 9 9 9 8 7 7 8 8 8 6 4 4 3 4 7 7 7 7 7 7 7
4 3 3 3 3 3 3 5 5 5 6 6 5 5 4 2 3 4 6 8 8 8 8 8 7 7 7 6 7 7 6 3 4 3 3 6 7 7 7 6 6 6 6
3 3 2 2 3 3 3 2 2 2 2 2 2 1 1 2 2 4 5 6 7 7 7 7 7 6 5 3 4 5 3 4 3 3 4 7 7 6 6 6 6 6 6
2 2 2 2 2 2 2 1 1 1 1 1 2 2 2 2 2 2 1 2 3 4 3 4 4 3 3 3 3 3 3 3 2 3 5 7 7 6 6 6 5 5 5
3 2 2 2 3 2 2 1 1 1 1 2 1 1 2 1 2 2 1 1 1 1 2 2 2 3 3 4 3 3 3 2 2 2 4 7 7 7 7 6 5 5 5
3 3 2 2 2 2 1 1 1 1 1 2 2 2 2 2 2 1 1 1 1 1 2 2 2 3 2 3 3 3 3 2 1 1 2 6 7 7 7 7 7 7 6
2 3 2 1 1 2 1 1 1 1 1 1 2 2 2 1 1 1 1 2 2 2 2 2 2 2 2 2 3 3 3 2 2 1 1 2 6 6 7 7 7 7 7
3 2 2 2 1 2 1 1 1 1 2 2 2 3 3 2 1 1 1 1 1 2 2 2 2 2 2 2 2 3 2 2 2 2 2 1 2 5 6 7 8 8 8
4 3 2 1 1 2 1 1 1 1 2 1 1 2 3 3 2 1 1 1 2 2 2 2 2 2 2 2 2 2 2 2 2 2 2 2 1 2 4 7 8 8 8
4 3 2 2 1 1 1 1 1 1 1 1 1 1 2 3 3 2 1 1 2 2 2 2 2 2 2 2 2 2 1 1 2 2 1 2 2 2 2 4 7 8 9
3 3 2 2 1 1 1 1 1 1 1 1 1 1 2 2 3 2 1 1 1 1 1 2 2 2 1 2 2 2 2 2 1 1 1 1 2 2 2 3 3 5 8
3 2 2 2 1 1 1 1 1 1 0 1 1 1 1 2 2 1 1 1 1 1 1 1 1 2 2 2 1 2 2 2 1 1 1 1 1 2 3 3 2 2 3
3 2 2 2 1 1 1 1 1 1 1 1 0 1 1 1 2 1 1 1 1 1 1 1 1 1 1 2 1 2 2 2 1 2 1 1 1 2 3 3 3 3 3
2 2 2 2 2 1 1 1 1 1 0 0 0 1 1 1 1 1 1 1 1 1 1 1 1 1 1 2 1 0 1 2 3 2 2 1 1 2 2 3 3 3 3
3 2 2 2 1 2 2 2 2 1 1 1 0 0 1 1 2 2 1 1 0 0 1 1 1 1 1 2 2 1 2 1 2 3 2 2 2 2 3 3 3 3 2
2 2 2 2 1 1 2 3 3 2 1 1 0 0 1 1 1 2 1 1 1 1 1 1 2 2 1 2 2 2 2 2 2 3 5 4 3 3 2 3 3 2 2
2 2 2 2 2 1 1 2 3 3 2 1 1 1 1 1 1 2 1 1 1 1 1 1 1 2 2 2 2 2 2 2 2 3 5 5 5 4 3 3 3 2 2
Wind_Direction
69 64 32 50 65 72 72 70 69 70 70 71 73 70 69 66 64 64 63 62 61 61 62 60 56 54 53 51 49 48 46 45 45 45 46 51 55 55 52 46 43 47 51
89 86 56 55 70 72 72 70 71 71 72 72 71 68 67 66 64 63 64 63 62 61 61 60 57 54 52 50 47 45 43 39 34 27 31 48 57 53 49 45 45 47 50
89 91 74 52 68 74 74 73 73 72 72 71 71 68 66 64 62 61 62 60 59 60 60 58 56 55 51 48 45 41 36 28 18 6 3 35 63 54 49 47 43 44 46
93 95 82 59 67 74 75 73 72 74 72 70 69 67 65 62 60 60 60 58 58 59 59 57 56 53 49 46 41 35 26 17 7 0 7 36 50 54 52 48 44 44 44
90 89 80 68 71 73 74 73 72 73 72 70 67 66 65 62 60 60 59 58 57 56 55 54 54 52 47 42 36 29 19 11 4 360 13 34 43 51 49 48 45 43 41
91 91 88 73 74 73 73 74 74 73 73 71 67 66 65 64 61 59 56 56 55 54 53 51 50 47 43 38 32 26 19 14 4 3 33 39 39 45 48 48 46 44 40
86 94 99 75 76 75 74 75 76 75 72 69 66 65 64 62 62 59 56 53 53 53 52 50 48 44 41 36 29 23 16 12 11 8 37 39 41 45 45 43 41 39 38
84 92 100 76 77 76 73 71 74 75 72 69 66 64 62 61 59 57 55 52 51 50 48 48 44 40 38 33 27 22 14 8 12 15 30 40 43 44 43 38 34 33 31
80 81 88 90 84 74 69 67 69 71 70 68 65 62 59 57 55 54 50 49 48 46 45 45 42 37 35 33 28 20 14 14 12 15 24 34 44 44 39 36 34 32 28
86 82 82 82 82 86 81 69 67 67 66 63 61 58 59 60 55 51 47 44 44 43 43 41 39 37 32 29 24 16 10 11 18 19 21 37 43 41 36 33 33 33 26
80 87 88 82 82 82 86 78 72 72 69 67 55 52 58 63 64 51 44 41 39 39 38 37 36 34 29 21 16 13 14 16 17 20 22 35 41 38 32 25 22 21 20
77 72 76 72 71 78 79 86 80 71 81 77 59 40 39 44 51 59 48 44 39 36 31 27 25 20 18 9 7 12 19 13 17 15 23 34 34 27 21 19 17 13 15
99 68 57 59 60 65 68 75 53 55 42 53 59 32 31 46 49 62 62 51 39 34 26 16 13 7 8 8 14 21 17 17 22 13 17 25 23 16 7 9 11 9 9
124 101 61 61 52 55 69 69 66 58 41 30 34 29 38 36 31 33 40 33 30 19 15 14 9 7 10 10 15 15 19 23 19 14 20 20 14 7 359 358 2 0 360
140 131 100 70 67 44 52 64 65 61 57 39 14 23 39 35 24 24 23 22 22 21 13 9 9 7 8 8 18 15 9 8 10 26 24 21 14 7 1 357 357 355 352
142 138 133 126 101 80 59 58 63 52 56 54 36 18 30 37 21 16 19 20 17 10 6 9 4 1 2 12 16 9 357 347 351 1 41 20 9 1 353 349 347 346 344
154 137 147 163 127 101 87 62 63 56 57 51 42 22 11 20 16 21 23 22 9 5 12 14 11 11 7 11 10 360 350 344 348 355 1 352 352 0 349 343 342 341 339
151 147 147 148 141 121 103 74 57 44 54 52 45 30 15 12 16 27 24 14 10 13 17 10 10 5 356 353 354 343 337 338 342 341 352 351 347 350 346 345 344 342 342
157 155 143 122 131 136 129 122 96 67 57 52 46 38 17 11 14 21 18 12 16 22 14 359 1 2 350 348 334 325 325 324 309 325 340 342 346 350 343 338 337 338 337
148 147 146 135 130 130 136 135 124 105 77 59 44 22 24 12 3 26 21 13 18 24 8 5 358 359 340 331 323 325 305 288 282 307 308 322 329 336 341 338 326 327 329
147 154 163 147 136 133 123 136 159 169 126 75 48 17 23 15 359 16 19 10 16 21 358 356 359 356 341 343 327 314 291 269 233 296 298 297 321 340 343 338 330 326 321
165 164 161 158 166 180 141 147 204 166 170 160 81 0 18 21 0 354 22 2 7 8 356 8 358 335 329 352 341 317 304 294 292 277 273 284 329 339 339 339 330 324 326
178 184 181 174 175 165 151 127 109 90 108 55 8 354 343 346 358 340 13 0 356 11 322 321 301 308 294 312 329 290 289 280 311 271 257 263 308 317 312 310 317 324 332
190 172 176 181 168 165 172 161 167 185 209 231 217 275 342 25 25 1 27 346 307 292 281 294 315 302 258 276 287 273 257 257 279 299 294 293 303 295 293 304 309 307 314
168 163 168 166 188 187 179 174 167 178 188 180 160 265 318 354 19 2 28 32 357 306 274 278 295 292 269 261 270 283 283 279 251 263 285 298 299 283 283 291 292 293 300
153 163 169 173 192 208 191 170 168 176 183 181 202 258 285 298 7 355 10 29 3 332 309 282 274 277 275 271 268 262 265 260 265 261 272 290 292 290 289 281 284 286 296